Tracking 25612 objects as of 21-May-2022
HD Live streaming from Space Station
objects crossing your sky now

COSMOS 1275 DEB

Track COSMOS 1275 DEB now!
10-day predictions


NORAD ID: 13471
Int'l Code: 1981-053FT
Perigee: 878.3 km
Apogee: 955.1 km
Inclination: 82.8 °
Period: 103.2 minutes
Semi major axis: 7287 km
RCS: 0.0585 m2 (small)
Launch date: June 4, 1981
Source: Commonwealth of Independent States (former USSR) (CIS)
Launch site: PLESETSK MISSILE AND SPACE COMPLEX (PKMTR)

Note: This is SATELLITE DEBRIS
aabbcc
Your satellite tracking list
Your tracking list is empty




NASA's NSSDC Master Catalog

Two Line Element Set (TLE):
1 13471U 81053FT  22140.39322986  .00001591  00000-0  11488-2 0  9994
2 13471  82.8097 277.1547 0052707 301.7561 112.0022 13.95462021 19370
Source of the keplerian elements: AFSPC